When you browse on this site, cookies collect data to enhance your experience and personalize the content and advertising you see.
Visit our Privacy Policy to learn more. By continuing to use the site, you agree to this use of cookies and data.
  • In Sweden
  • List of Countries
  • For 7 days
  • Water Temperature
  • Satellite Maps
  • Weather Map
  • Weather Widgets
  • user-avatar
    Login

    Hourly Weather Ilinka

    Today, 20 June, Thursday

    Time Temperature Precipitation Wind Pressure Humidity
    00:00 +12°C° 0 mm 3 mps 747 mmHg 72%
    01:00 +11°C° 0 mm 3 mps 747 mmHg 73%
    02:00 +11°C° 0 mm 3 mps 747 mmHg 74%
    03:00 +11°C° 0 mm 3 mps 747 mmHg 75%
    04:00 +10°C° 0 mm 3 mps 748 mmHg 76%
    05:00 +10°C° 0 mm 3 mps 748 mmHg 77%
    06:00 +12°C° 0 mm 4 mps 748 mmHg 74%
    07:00 +14°C° 0 mm 4 mps 748 mmHg 71%
    08:00 +15°C° 0 mm 4 mps 748 mmHg 68%
    09:00 +18°C° 0 mm 4 mps 748 mmHg 64%
    10:00 +19°C° 0 mm 4 mps 748 mmHg 60%
    11:00 +21°C° 0 mm 4 mps 748 mmHg 56%
    12:00 +22°C° 0 mm 4 mps 748 mmHg 53%
    13:00 +23°C° 0 mm 4 mps 748 mmHg 51%
    14:00 +23°C° 0 mm 4 mps 748 mmHg 48%
    15:00 +23°C° 0 mm 4 mps 748 mmHg 49%
    16:00 +23°C° 0 mm 4 mps 747 mmHg 50%
    17:00 +23°C° 0 mm 4 mps 747 mmHg 51%
    18:00 +22°C° 0 mm 4 mps 747 mmHg 57%
    19:00 +21°C° 0 mm 3 mps 747 mmHg 64%
    20:00 +19°C° 0 mm 3 mps 747 mmHg 70%
    21:00 +18°C° 0 mm 3 mps 747 mmHg 70%
    22:00 +17°C° 0 mm 3 mps 747 mmHg 70%
    23:00 +16°C° 0 mm 3 mps 746 mmHg 70%

    Tomorrow, 21 June, Friday

    Time Temperature Precipitation Wind Pressure Humidity
    00:00 +14°C° 0 mm 4 mps 746 mmHg 71%
    01:00 +14°C° 0 mm 4 mps 746 mmHg 71%
    02:00 +13°C° 0 mm 4 mps 746 mmHg 72%
    03:00 +13°C° 0 mm 4 mps 746 mmHg 72%
    04:00 +13°C° 0 mm 4 mps 746 mmHg 73%
    05:00 +13°C° 0 mm 4 mps 746 mmHg 73%
    06:00 +15°C° 0 mm 4 mps 745 mmHg 71%
    07:00 +16°C° 0 mm 5 mps 745 mmHg 68%
    08:00 +19°C° 0 mm 5 mps 745 mmHg 65%
    09:00 +21°C° 0 mm 5 mps 745 mmHg 62%
    10:00 +22°C° 0 mm 6 mps 745 mmHg 59%
    11:00 +24°C° 0 mm 6 mps 745 mmHg 56%
    12:00 +26°C° 0.1 mm 6 mps 744 mmHg 54%
    13:00 +26°C° 0.1 mm 6 mps 744 mmHg 53%
    14:00 +27°C° 0.1 mm 6 mps 744 mmHg 52%
    15:00 +26°C° 1.1 mm 6 mps 744 mmHg 59%
    16:00 +23°C° 1.1 mm 5 mps 744 mmHg 67%
    17:00 +22°C° 1.1 mm 5 mps 744 mmHg 74%
    18:00 +21°C° 0.1 mm 4 mps 744 mmHg 74%
    19:00 +20°C° 0.1 mm 4 mps 744 mmHg 75%
    20:00 +19°C° 0.1 mm 4 mps 744 mmHg 75%
    21:00 +18°C° 0 mm 4 mps 745 mmHg 76%
    22:00 +15°C° 0 mm 4 mps 745 mmHg 77%
    23:00 +13°C° 0 mm 3 mps 746 mmHg 77%

    Day after tomorrow, 22 June, Saturday

    Time Temperature Precipitation Wind Pressure Humidity
    00:00 +13°C° 0 mm 3 mps 746 mmHg 79%
    01:00 +12°C° 0 mm 3 mps 746 mmHg 81%
    02:00 +11°C° 0 mm 3 mps 746 mmHg 83%
    03:00 +11°C° 0 mm 3 mps 747 mmHg 84%
    04:00 +10°C° 0 mm 3 mps 747 mmHg 84%
    05:00 +10°C° 0 mm 2 mps 748 mmHg 85%
    06:00 +11°C° 0 mm 3 mps 748 mmHg 79%
    07:00 +13°C° 0 mm 4 mps 748 mmHg 73%
    08:00 +14°C° 0 mm 4 mps 749 mmHg 66%
    09:00 +15°C° 0 mm 5 mps 749 mmHg 61%
    10:00 +15°C° 0 mm 6 mps 749 mmHg 57%
    11:00 +16°C° 0 mm 7 mps 750 mmHg 52%
    12:00 +16°C° 0 mm 7 mps 750 mmHg 51%
    13:00 +16°C° 0 mm 6 mps 750 mmHg 51%
    14:00 +16°C° 0 mm 6 mps 750 mmHg 51%
    15:00 +16°C° 0 mm 6 mps 751 mmHg 51%
    16:00 +16°C° 0 mm 5 mps 751 mmHg 52%
    17:00 +16°C° 0 mm 5 mps 751 mmHg 53%
    18:00 +15°C° 0 mm 4 mps 751 mmHg 58%
    19:00 +15°C° 0 mm 2 mps 751 mmHg 63%
    20:00 +15°C° 0 mm 1 mps 751 mmHg 68%
    21:00 +14°C° 0 mm 1 mps 751 mmHg 69%
    22:00 +13°C° 0 mm 2 mps 751 mmHg 70%
    23:00 +12°C° 0 mm 2 mps 751 mmHg 72%

    23 June, Sunday

    Time Temperature Precipitation Wind Pressure Humidity
    00:00 +10°C° 0 mm 2 mps 751 mmHg 74%
    01:00 +10°C° 0 mm 2 mps 751 mmHg 76%
    02:00 +9°C° 0 mm 3 mps 751 mmHg 78%
    03:00 +10°C° 0 mm 3 mps 751 mmHg 77%
    04:00 +10°C° 0 mm 3 mps 750 mmHg 77%
    05:00 +10°C° 0 mm 3 mps 750 mmHg 77%
    06:00 +12°C° 0 mm 3 mps 750 mmHg 73%
    07:00 +14°C° 0 mm 4 mps 750 mmHg 69%
    08:00 +17°C° 0 mm 4 mps 750 mmHg 65%
    09:00 +18°C° 0 mm 4 mps 750 mmHg 63%
    10:00 +20°C° 0 mm 4 mps 749 mmHg 61%
    11:00 +21°C° 0 mm 4 mps 749 mmHg 59%
    12:00 +22°C° 0 mm 4 mps 749 mmHg 56%
    13:00 +25°C° 0 mm 5 mps 748 mmHg 53%
    14:00 +26°C° 0 mm 5 mps 748 mmHg 51%
    15:00 +26°C° 0.1 mm 5 mps 747 mmHg 55%
    16:00 +25°C° 0.1 mm 5 mps 747 mmHg 59%
    17:00 +25°C° 0.1 mm 5 mps 746 mmHg 64%
    18:00 +22°C° 0.8 mm 5 mps 746 mmHg 74%
    19:00 +20°C° 0.8 mm 5 mps 745 mmHg 84%
    20:00 +17°C° 0.8 mm 5 mps 745 mmHg 94%
    21:00 +17°C° 0.2 mm 5 mps 745 mmHg 93%
    22:00 +17°C° 0.2 mm 5 mps 744 mmHg 92%
    23:00 +19°C° 0.2 mm 5 mps 744 mmHg 92%

    24 June, Monday

    Time Temperature Precipitation Wind Pressure Humidity
    00:00 +17°C° 0.2 mm 5 mps 744 mmHg 93%
    01:00 +17°C° 0.2 mm 5 mps 744 mmHg 93%
    02:00 +17°C° 0.2 mm 5 mps 744 mmHg 94%
    03:00 +18°C° 0 mm 4 mps 744 mmHg 94%
    04:00 +18°C° 0 mm 4 mps 744 mmHg 95%
    05:00 +18°C° 0 mm 3 mps 744 mmHg 95%
    06:00 +19°C° 0 mm 3 mps 744 mmHg 92%
    07:00 +20°C° 0 mm 3 mps 744 mmHg 89%
    08:00 +22°C° 0 mm 3 mps 744 mmHg 85%
    09:00 +23°C° 0.1 mm 4 mps 744 mmHg 80%
    10:00 +25°C° 0.1 mm 4 mps 744 mmHg 75%
    11:00 +26°C° 0.1 mm 5 mps 744 mmHg 70%
    12:00 +27°C° 0.2 mm 5 mps 744 mmHg 68%
    13:00 +28°C° 0.2 mm 5 mps 744 mmHg 65%
    14:00 +29°C° 0.2 mm 5 mps 744 mmHg 63%
    15:00 +28°C° 0.2 mm 5 mps 744 mmHg 62%
    16:00 +28°C° 0.2 mm 5 mps 744 mmHg 61%
    17:00 +28°C° 0.2 mm 4 mps 745 mmHg 60%
    18:00 +27°C° 0.3 mm 4 mps 745 mmHg 66%
    19:00 +26°C° 0.3 mm 3 mps 745 mmHg 73%
    20:00 +24°C° 0.3 mm 3 mps 745 mmHg 79%
    21:00 +22°C° 0 mm 3 mps 745 mmHg 80%
    22:00 +20°C° 0 mm 3 mps 745 mmHg 81%
    23:00 +19°C° 0 mm 3 mps 745 mmHg 81%

    25 June, Tuesday

    Time Temperature Precipitation Wind Pressure Humidity
    00:00 +18°C° 0 mm 3 mps 745 mmHg 82%
    01:00 +17°C° 0 mm 3 mps 745 mmHg 82%
    02:00 +16°C° 0 mm 3 mps 745 mmHg 83%
    03:00 +16°C° 0 mm 3 mps 745 mmHg 83%
    04:00 +16°C° 0 mm 3 mps 746 mmHg 84%
    05:00 +14°C° 0 mm 3 mps 746 mmHg 84%
    06:00 +17°C° 0 mm 3 mps 746 mmHg 78%
    07:00 +18°C° 0 mm 3 mps 747 mmHg 73%
    08:00 +19°C° 0 mm 3 mps 747 mmHg 67%
    09:00 +20°C° 0 mm 3 mps 747 mmHg 63%
    10:00 +21°C° 0 mm 4 mps 747 mmHg 58%
    11:00 +22°C° 0 mm 5 mps 748 mmHg 54%
    12:00 +23°C° 0 mm 5 mps 748 mmHg 52%
    13:00 +23°C° 0 mm 5 mps 748 mmHg 50%
    14:00 +23°C° 0 mm 5 mps 748 mmHg 49%
    15:00 +23°C° 0 mm 4 mps 748 mmHg 50%
    16:00 +23°C° 0 mm 4 mps 749 mmHg 51%
    17:00 +22°C° 0 mm 4 mps 749 mmHg 52%
    18:00 +21°C° 0.1 mm 3 mps 749 mmHg 59%
    19:00 +20°C° 0.1 mm 3 mps 749 mmHg 66%
    20:00 +19°C° 0.1 mm 3 mps 749 mmHg 73%
    21:00 +17°C° 0 mm 3 mps 749 mmHg 74%
    22:00 +16°C° 0 mm 2 mps 750 mmHg 76%
    23:00 +14°C° 0 mm 2 mps 750 mmHg 78%
    Show more